Location: ??????
(38.0677°N, 22.9870°E)
Time: 10:27:56
(UTC+00:00)

FENGYUN 3A - Pass Details

Date: 23 May 2024
Orbit: 821 x 835 km, 98.6° (Epoch: 18 June)

Event Time Altitude Azimuth Distance (km) Brightness Sun altitude
Rises 00:36:23 0° 16° (NNE) 3,364 8.0 -23.7°
Reaches altitude 10° 00:38:46 10° 19° (NNE) 2,426 7.1 -23.4°
Maximum altitude 00:44:07 67° 102° (ESE) 887 3.8 -22.8°
Enters shadow 00:45:58 40° 170° (S) 1,184 4.1 -22.6°
